EXPRESS-AM7

Last updated on Sat Jul 05 2025 00:02:46 GMT+0000 (Coordinated Universal Time)

1 40505U 15012A 25185.57337181 .00000165 00000+0 00000+0 0 9999 2 40505 0.0134 61.6380 0003278 45.4954 62.0790 1.00272351 37521
UTC large
Height (km)
Speed (km/s)
/
Latitude / Longitude
Inclination (degrees)
Orbital Period (minutes)
Azimuth
Elevation
Range (km)
Doppler Factor

Next 0 passes for location: London (51.5072 / 0.1276)

Sorry there are no passes over London.